Location: Most
(50.5133°N, 13.6207°E)
Time: 20:16:57
(UTC+02:00)

Tiangong - Pass Details

Date: 02 October 2021
Orbit: 382 x 385 km, 41.5° (Epoch: 16 October)

Event Time Altitude Azimuth Distance (km) Brightness Sun altitude
Exits shadow 06:25:31 - 235° (SW) 1,625 3.7 -7.5°
Reaches altitude 10° 06:26:20 10° 225° (SW) 1,398 3.5 -7.4°
Maximum altitude 06:28:14 15° 188° (S) 1,138 3.3 -7.1°
Drops below altitude 10° 06:30:08 10° 151° (SSE) 1,396 4.3 -6.8°
Sets 06:32:48 0° 127° (SE) 2,247 5.9 -6.3°
